Showing default

FLYING LAPTOP, 42831

Orbit data source: Space-Track

FLYING LAPTOP, 42831 is a payload satellite owned by IRS Stuttgart (DE) in SSO that was launched on Fri, 14 Jul 2017 UTC via a SOYUZ-2-1A launch vehicle from the Tyuratam Missile And Space Complex (TTMTR). Payloads include a variety of satellites, spacecraft, and rockets equipped with specific instruments for various scientific and technological missions. These include communications satellites like Starlink; space stations such as the ISS; scientific satellites like the Hubble; Earth observation satellites from companies like Planet Labs, Umbra, and HawkEye 360; GPS; miniature CubeSats for education and research; and military/defense satellites.

Loading next visibility...
FLYING LAPTOP details
Identifier
42831, 2017-042G
Orbit
SSO
Last TLE update9 hours ago
Origin
Flag of DEIRS Stuttgart (DE / GER)
ManufacturerIRS Stuttgart
MissionOperational Amateur Technology
Bus & MotorFLP, Unknown motor
Mass120 kg wet, 120 kg dry
Launch date (UTC)
2017-07-14 (7 years ago)
Launch vehicle
SOYUZ-2-1A
Launch site
Tyuratam Missile And Space Complex (TTMTR)
Object type
Payload
Rocket body
Debris
Shape & HBRBox + 2 Pan, 2.1 m
Radar Cross Section0.788 m², Medium (>0.1 m² and < 1m²)

Expand to show TLE details & history

TLE from 9 hours ago
0 FLYING LAPTOP
1 42831U 17042G   24361.13831307  .00005966  00000-0  51935-3 0  9996
2 42831  97.3883 171.3198 0012718 146.9918 213.2101 14.97212765405839
Epoch: 2024-12-26T03:19Z
Definitive object data (Epoch: 2024-12-26T03:19:10.249Z)
Latitude-0.00003°
Longitude26.40509°
Altitude585.977 km
Speed7.563 km/s
True Right ascension11h 25m 16s
True Declination0° 00' 00"
Sunlit
Object was in daylight at TLE epoch
Visualization TLE readout
Latitude58.095°
Longitude-141.30264°
Altitude577.279 km
Speed7.582 km/s
Apparent Right ascension23h 40m 00s
Apparent Declination12° 00' 38"
Sunlit
Object is in daylight
Visualization observer readout
Local Sidereal Time11:14:09
Azimuth351.997° N
Elevation-37.727°
Doppler factor1
Orbital elements
Apogee altitude581.348 km
Perigee altitude563.669 km
Semi-major axis6,950.646 km
Eccentricity0.0012718
Inclination97.3883°
RAAN171.3198°
Arg. of periapsis146.9918°
True anomaly213.13038°
Mean anomaly213.2101°
Eccentric anomaly213.17023°
Mean motion3.74546 °/min
BSTAR0.00051935
Orbital period96.12 mins
Loading maneuver chart data...

FLYING LAPTOP Visibility forecast

Observer location: undefined°, undefined

Span
Click to sort rows by Start time (UTC) header in descending order
Start Az.
Max El. time (UTC)
Max El. Az.
Max El.
End time (UTC)
End Az.
6 mins2024-12-27 00:44:44.156Z356.753° N2024-12-27 00:47:44.156Z261.222° W38.197°2024-12-27 00:50:44.156Z209.839° SW
7 mins2024-12-27 11:31:44.156Z161.115° S2024-12-27 11:34:44.156Z82.776° E44.34°2024-12-27 11:38:44.156Z351.148° N
|